FALCON 9 DEB (53582 NORAD) Tracking and Keplerian Element Data

This shows tracking and keplerian element data for the satellite.

Feedback or suggestion? Click here.




ElementValue
Catalog53582
NameFALCON 9 DEB
Epoch Orbit258
Epoch Day247.80675885
Epoch Year2022
RAAN72.8417
Inclination53.2154
Eccentricity0.0035136
Argument of Perigee94.1524
Mean Anonmoly266.3532
Mean Motion16.16634019
Decay Rate0.01516887
L11 53582U 22101BH 22247.80675885 .01516887 11736-4 87428-3 0 9993
L22 53582 53.2154 72.8417 0035136 94.1524 266.3532 16.16634019 2586



Live tracking and technical data element details for FALCON 9 DEB (NORAD 53582). FALCON 9 DEB can be tracked NOW for your location showing map with azimuth and elevation plus other details from your city location.







IsCatalogInMostPopularTable: catalog: 53582, numindb: 4
Update: records affected: 1



GetName: 53582 FALCON 9 DEB

Hit Count: updated at: Thu, 08 Dec 2022 09:54:50 GMT